Weather History for Ajaccio, France

Change the Weather History Date:

Wednesday, February 13, 2013

  Actual Average Record
Temperature  
Mean Temperature 44 °F -  
Max Temperature 55 °F 56 °F 60 °F (1997)
Min Temperature 33 °F 39 °F 24 °F (1999)
Degree Days  
Heating Degree Days 21    
Moisture  
Dew Point 34 °F    
Average Humidity 73    
Maximum Humidity 93    
Minimum Humidity 40    
Precipitation  
Precipitation 0.00 in 0.08 in - ()
Sea Level Pressure  
Sea Level Pressure 29.77 in    
Wind  
Wind Speed 7 mph ()    
Max Wind Speed 18 mph    
Max Gust Speed 24 mph    
Visibility 6.5 miles    
Events      
Averages and records for this station are not official NWS values.
T = Trace of Precipitation, MM = Missing Value Source: Averaged Metar Reports

Daily Weather History Graph

Daily Weather History Graph

Search for Another Location

Airport:

Trip Planner

Search our weather history database for the weather conditions in past years. The results will help you decide how hot, cold, wet, or windy it might be!

Date:

Astronomy

Feb. 13, 2013 Rise Set
Actual Time 7:23 AM CET 5:55 PM CET
Civil Twilight 6:54 AM CET 6:24 PM CET
Nautical Twilight 6:21 AM CET 6:56 PM CET
Astronomical Twilight 5:49 AM CET 7:29 PM CET
Moon 8:39 AM CET (2/13) 9:46 PM CET (2/13)
Length of Visible Light 11h 29m
Length of Day
10h 32m
Waxing Crescent, 12% of the Moon is Illuminated
Feb 13
Waxing Crescent
Feb 17
First Quarter
Feb 25
Full
Mar 4
Last Quarter
Mar 11
New

Hourly Weather History & Observations

Time (CET) Temp. Windchill Dew Point Humidity Pressure Visibility Wind Dir Wind Speed Gust Speed Precip Events Conditions
12:00 AM 37.4 °F 32.8 °F 35.6 °F 93% 29.74 in - NE 5.8 mph - N/A   Clear
12:30 AM 35.6 °F 29.9 °F 33.8 °F 93% 29.74 in 6.2 mi NE 6.9 mph - N/A   Unknown
1:00 AM 36 °F - 34 °F 89% 29.77 in 31 mi NE 8.1 mph - -   Clear
1:00 AM 35.6 °F 29.2 °F 33.8 °F 93% 29.74 in 6.2 mi NE 8.1 mph - N/A   Unknown
1:30 AM 35.6 °F 29.2 °F 33.8 °F 93% 29.74 in 6.2 mi NE 8.1 mph - N/A   Unknown
2:00 AM 35.6 °F 31.7 °F 33.8 °F 93% 29.74 in 6.2 mi NNE 4.6 mph - N/A   Unknown
2:30 AM 33.8 °F 29.6 °F 32.0 °F 93% 29.74 in 6.2 mi ENE 4.6 mph - N/A   Unknown
3:00 AM 35.6 °F 29.2 °F 33.8 °F 93% 29.74 in 6.2 mi ENE 8.1 mph - N/A   Unknown
3:30 AM 33.8 °F 26.4 °F 32.0 °F 93% 29.74 in 6.2 mi NE 9.2 mph - N/A   Unknown
4:00 AM 33.8 °F 28.6 °F 32.0 °F 93% 29.74 in 6.2 mi NE 5.8 mph - N/A   Unknown
4:30 AM 33.8 °F 27.0 °F 32.0 °F 93% 29.74 in 6.2 mi NE 8.1 mph - N/A   Unknown
5:00 AM 33.8 °F 25.8 °F 32.0 °F 93% 29.74 in 6.2 mi NE 10.4 mph - N/A   Unknown
5:30 AM 33.8 °F 26.4 °F 32.0 °F 93% 29.74 in 6.2 mi NE 9.2 mph - N/A   Unknown
6:00 AM 33.8 °F 27.0 °F 32.0 °F 93% 29.74 in 6.2 mi NE 8.1 mph - N/A   Scattered Clouds
6:30 AM 33.8 °F 26.4 °F 32.0 °F 93% 29.74 in - NE 9.2 mph - N/A   Clear
7:00 AM 34 °F - 32 °F 89% 29.77 in 19 mi NE 9.2 mph - -   Scattered Clouds
7:00 AM 33.8 °F 26.4 °F 32.0 °F 93% 29.74 in 6.2 mi NE 9.2 mph - N/A   Scattered Clouds
7:30 AM 33.8 °F 27.0 °F 32.0 °F 93% 29.77 in 6.2 mi NE 8.1 mph - N/A   Scattered Clouds
8:00 AM 33.8 °F 27.7 °F 32.0 °F 93% 29.77 in 6.2 mi NE 6.9 mph - N/A   Scattered Clouds
8:30 AM 35.6 °F 29.9 °F 33.8 °F 93% 29.77 in 6.2 mi NE 6.9 mph - N/A   Partly Cloudy
9:00 AM 37.4 °F 32.1 °F 35.6 °F 93% 29.77 in 6.2 mi NE 6.9 mph - N/A   Partly Cloudy
9:30 AM 41.0 °F 36.4 °F 35.6 °F 81% 29.77 in 6.2 mi NE 6.9 mph - N/A   Partly Cloudy
10:00 AM 44.6 °F 42.2 °F 37.4 °F 76% 29.77 in 6.2 mi ENE 4.6 mph - N/A   Partly Cloudy
10:30 AM 48.2 °F - 39.2 °F 71% 29.77 in 6.2 mi NE 3.5 mph - N/A   Partly Cloudy
11:00 AM 50.0 °F - 35.6 °F 58% 29.77 in 6.2 mi Variable 2.3 mph - N/A   Partly Cloudy
11:30 AM 51.8 °F - 37.4 °F 58% 29.77 in 6.2 mi SSW 4.6 mph - N/A   Partly Cloudy
12:00 PM 51.8 °F - 39.2 °F 62% 29.77 in 6.2 mi SSW 4.6 mph - N/A   Partly Cloudy
12:30 PM 53.6 °F - 39.2 °F 58% 29.77 in 6.2 mi SSW 5.8 mph - N/A   Partly Cloudy
1:00 PM 53 °F - 38 °F 44% 29.78 in 25 mi SSW 4.6 mph - -   Scattered Clouds
1:00 PM 53.6 °F - 37.4 °F 54% 29.77 in 6.2 mi SSW 4.6 mph - N/A   Partly Cloudy
1:30 PM 55.4 °F - 39.2 °F 54% 29.77 in 6.2 mi SW 6.9 mph - N/A   Partly Cloudy
2:00 PM 53.6 °F - 37.4 °F 54% 29.74 in 6.2 mi WNW 13.8 mph - N/A   Partly Cloudy
2:30 PM 55.4 °F - 37.4 °F 51% 29.74 in 6.2 mi WNW 12.7 mph - N/A   Partly Cloudy
3:00 PM 55.4 °F - 37.4 °F 51% 29.74 in 6.2 mi WNW 12.7 mph - N/A   Partly Cloudy
3:30 PM 55.4 °F - 35.6 °F 47% 29.74 in 6.2 mi WNW 15.0 mph - N/A   Partly Cloudy
4:00 PM 53.6 °F - 32.0 °F 44% 29.74 in 6.2 mi WNW 18.4 mph - N/A   Partly Cloudy
4:30 PM 53.6 °F - 32.0 °F 44% 29.74 in 6.2 mi NW 11.5 mph - N/A   Partly Cloudy
5:00 PM 53.6 °F - 30.2 °F 41% 29.74 in 6.2 mi NW 11.5 mph 24.2 mph N/A   Partly Cloudy
5:30 PM 51.8 °F - 28.4 °F 41% 29.77 in 6.2 mi NNW 10.4 mph - N/A   Partly Cloudy
6:00 PM 50.0 °F - 30.2 °F 47% 29.77 in 6.2 mi NW 9.2 mph - N/A   Partly Cloudy
6:30 PM 48.2 °F - 30.2 °F 50% 29.80 in 6.2 mi NW 8.1 mph - N/A   Partly Cloudy
7:00 PM 48 °F - 31 °F 40% 29.83 in 25 mi NNE 4.6 mph - -   Scattered Clouds
7:00 PM 48.2 °F - 32.0 °F 54% 29.80 in 6.2 mi NNE 4.6 mph - N/A   Partly Cloudy
7:30 PM 44.6 °F 42.2 °F 32.0 °F 61% 29.83 in 6.2 mi East 4.6 mph - N/A   Partly Cloudy
8:00 PM 42.8 °F 38.0 °F 32.0 °F 66% 29.83 in 6.2 mi ENE 8.1 mph - N/A   Partly Cloudy
8:30 PM 42.8 °F 39.3 °F 33.8 °F 70% 29.86 in 6.2 mi NNE 5.8 mph - N/A   Partly Cloudy
9:00 PM 41.0 °F 37.1 °F 33.8 °F 76% 29.86 in 6.2 mi East 5.8 mph - N/A   Scattered Clouds
9:30 PM 41.0 °F 38.0 °F 33.8 °F 76% 29.86 in 6.2 mi NE 4.6 mph - N/A   Partly Cloudy
10:00 PM 39.2 °F 35.0 °F 32.0 °F 75% 29.89 in 6.2 mi NE 5.8 mph - N/A   Partly Cloudy
10:30 PM 37.4 °F 31.4 °F 32.0 °F 81% 29.89 in 6.2 mi NE 8.1 mph - N/A   Partly Cloudy
11:00 PM 37.4 °F 31.4 °F 32.0 °F 81% 29.89 in 6.2 mi NE 8.1 mph - N/A   Partly Cloudy